Weather in Chagda

Russia / Sakha (Yakutia) Republic     58°45′01″N   130°36′28″E
temp.,
°C
wind,
m/s
gust,
m/s
humid.,
%
clouds,
%
prec.,
mm/h
press.,
hPa
HPBL,
m
12 april, mon
mon1200:00−10wsw51190100 0.3 1023909
03:00−10wsw51189100 0.5 1022906
06:00−10w5990100 0.3 10221036
09:00−8w5881100 0.6 10231352
12:00−6w4777100 0.4 10221462
15:00−5wnw4675100 0.9 10201314
18:00−5wnw2575100 0.5 1020847
21:00−12w1195100 0.6 102110
13 april, tue
tue1300:00−12wsw1198100 0.1 102111
03:00−14w1198100 0.1 102110
06:00−14w119886 0.1 102122
09:00−7wnw118599 0.2 1020459
12:00−4e1170100 0.2 10171075
15:00−3e1260100 0.4 10151210
18:00−4ese127315 0.1 101465
21:00−14ene00935 0.1 101510
14 april, wed
wed1400:00−17w119846 0.0 10159
03:00−19wsw119919 0.0 10149
06:00−18sw119819 0.0 101319
09:00−8ssw01796 0.0 1011265
12:00−4ese10769 0.0 1009587
15:00−2wsw125814 0.0 10081247
18:00−3ssw127267 0.0 100737
21:00−11sw119394 0.0 100913
15 april, thu
thu1500:00−10sw1394100 0.0 100967
03:00−9wsw289299 0.0 1008183
06:00−9wsw2792100 0.0 1008177
09:00−4wsw4790100 0.5 1009548
12:00+1w3565100 0.6 10081259
15:00+2w345799 1.4 10091234
18:000sw117970 0.6 101123
21:00−7sw11935 0.6 101410
16 april, fri
fri1600:00−9sw11965 0.0 101510
03:00−11wsw0097100 0.0 101610
06:00−9wsw0091100 0.0 101733
09:00−3ene2375100 0.0 1016268
12:00+1ene2468100 0.0 1014843
15:00+3e456199 0.0 10121245
18:00+1ene3871100 0.0 1012316
21:00−5ene249293 0.0 101159